Вернуться в каталог

CZ-6A DEB

АктивенSSO
NORAD 54327·DEBRIS·🇨🇳 China

Запущен Nov 11, 2022 с Taiyuan Satellite Launch Center

Loading…

Ближайшие Пролёты (ближайшие 24 часа)

TLE

СвежийSource: Space-Track

Эпоха: Sep 14, 2026, 06:47 UTC

1 54327U 22151BW  26257.28271896  .00000514  00000-0  30275-3 0  9997
2 54327  98.8346 253.2031 0049275  84.0556 276.6228 14.11659461197022

Отслеживайте CZ-6A DEB в реальном времени с AllMySat

Download on the App Store